Preview of NWS' New Version of Forecast
This preview is not operational and should not be used for support decisions.

Regional Weather Roundup (RWR)

Issued by National Weather Service (NWS)

                            
000
ASUS43 KLSX 240657
RWRMO 

WEATHER SUMMARY FOR MISSOURI
NATIONAL WEATHER SERVICE SPRINGFIELD MO
200 AM CDT SUN MAR 24 2019

NOTE: "FAIR" INDICATES FEW OR NO CLOUDS BELOW 12,000 FEET WITH NO
       SIGNIFICANT WEATHER AND/OR OBSTRUCTIONS TO VISIBILITY.
       CURRENT SKY AND/OR WEATHER CONDITIONS ARE NOT AVAILABLE FOR
       CHILLICOTHE AND FARMINGTON.

MOZ001>031-035>038-043-044-053-054-240800-
...NORTHERN AND WESTERN MISSOURI...
  
CITY           SKY/WX    TMP DP  RH WIND       PRES   REMARKS
KANSAS CTY INT CLOUDY    48  43  82 S15       29.97F                  
LEE'S SUMMIT   MOCLDY    48  43  82 S8        30.00S                  
ST JOSEPH        N/A    N/A N/A N/A MISG      29.99F                  
CHILLICOTHE      N/A     51  45  79 SE7       30.03F                  
     
$$
MOZ066>068-077>081-088>096-101>105-240800-
...SOUTHWEST MISSOURI...
  
CITY           SKY/WX    TMP DP  RH WIND       PRES   REMARKS
SPRINGFIELD    CLOUDY    49  45  86 SE18      30.05F                  
JOPLIN         CLOUDY    51  47  86 SE18G30   29.98F                  
               
$$
MOZ032>034-039>042-045>050-055>058-069>072-240800-
...CENTRAL MISSOURI...  
  
CITY           SKY/WX    TMP DP  RH WIND       PRES   REMARKS
COLUMBIA       NOT AVBL                                               
JEFFERSON CITY MOCLDY    48  43  82 SE8       30.08F                  
ROLLA          LGT RAIN  48  43  82 SE10      30.08F                  
SEDALIA        PTCLDY    51  45  79 S14G23    30.04S                  
WARRENSBURG    MOCLDY    46  43  87 SE9       30.02F                  
               
$$
MOZ051-052-059>065-240800-
...EAST CENTRAL MISSOURI...
  
CITY           SKY/WX    TMP DP  RH WIND       PRES   REMARKS
ST LOUIS INTL  CLOUDY    48  42  80 E5        30.14F                  
                   
$$
MOZ072>076-082>087-097>100-106>115-240800-
...SOUTH CENTRAL AND SOUTHEAST MISSOURI...
  
CITY           SKY/WX    TMP DP  RH WIND       PRES   REMARKS
CAPE GIRARDEAU NOT AVBL                                               
POPLAR BLUFF   CLOUDY    51  44  77 E3        30.14F                  
WEST PLAINS    CLOUDY    47  43  86 E5        30.12F                  
                                       
$$